Time,TemperatureF,DewpointF,PressureIn,WindDirection,WindDirectionDegrees,WindSpeedMPH,WindSpeedGustMPH,Humidity,HourlyPrecipIn,Conditions,Clouds,dailyrainin,SoftwareType,DateUTC
2013-01-16 00:00:00,43.3,28.7,30.33,East,101,2.0,5.0,56,0.00,,---,0.00,VWS V14.00,2013-01-16 08:00:00,
2013-01-16 00:01:00,43.3,28.7,30.33,East,101,2.0,5.0,56,0.00,,---,0.00,VWS V14.00,2013-01-16 08:01:00,
2013-01-16 00:20:00,43.1,28.0,30.33,ESE,122,1.0,4.0,55,0.00,,,0.00,weatherlink.com 1.10,2013-01-16 08:20:00,
2013-01-16 00:30:00,40.9,28.9,30.33,East,85,2.0,5.0,62,0.00,,---,0.00,VWS V14.00,2013-01-16 08:30:00,
2013-01-16 00:31:00,40.9,28.9,30.33,East,85,2.0,5.0,62,0.00,,---,0.00,VWS V14.00,2013-01-16 08:31:00,
2013-01-16 00:38:00,40.6,28.0,30.33,ESE,104,1.0,5.0,62,0.00,,,0.00,weatherlink.com 1.10,2013-01-16 08:38:00,
2013-01-16 00:56:00,42.4,29.0,30.33,ESE,120,2.0,4.0,59,0.00,,,0.00,weatherlink.com 1.10,2013-01-16 08:56:00,
2013-01-16 01:00:00,42.6,28.9,30.33,ESE,107,0.0,6.0,58,0.00,,---,0.00,VWS V14.00,2013-01-16 09:00:00,
2013-01-16 01:01:00,42.6,28.9,30.33,ESE,107,0.0,6.0,58,0.00,,---,0.00,VWS V14.00,2013-01-16 09:01:00,
2013-01-16 01:13:00,42.9,29.0,30.32,SW,229,0.0,3.0,58,0.00,,,0.00,weatherlink.com 1.10,2013-01-16 09:13:00,
2013-01-16 01:30:00,42.4,29.0,30.32,ENE,63,2.0,3.0,59,0.00,,,0.00,weatherlink.com 1.10,2013-01-16 09:30:00,
2013-01-16 01:31:00,42.5,29.2,30.32,ENE,65,0.0,5.0,59,0.00,,---,0.00,VWS V14.00,2013-01-16 09:31:00,
2013-01-16 01:48:00,43.0,29.0,30.32,SE,126,2.0,4.0,58,0.00,,,0.00,weatherlink.com 1.10,2013-01-16 09:48:00,
2013-01-16 02:00:00,39.1,28.3,30.32,East,82,1.0,8.0,65,0.00,,---,0.00,VWS V14.00,2013-01-16 10:00:00,
2013-01-16 02:01:00,39.1,28.3,30.32,East,82,1.0,8.0,65,0.00,,---,0.00,VWS V14.00,2013-01-16 10:01:00,
2013-01-16 02:04:00,38.6,28.0,30.32,East,83,1.0,5.0,66,0.00,,,0.00,weatherlink.com 1.10,2013-01-16 10:04:00,
2013-01-16 02:22:00,38.9,28.0,30.32,SE,143,3.0,4.0,66,0.00,,,0.00,weatherlink.com 1.10,2013-01-16 10:22:00,
2013-01-16 02:30:00,39.2,28.4,30.32,ESE,122,0.0,4.0,65,0.00,,---,0.00,VWS V14.00,2013-01-16 10:30:00,
2013-01-16 02:31:00,39.2,28.4,30.32,ESE,122,0.0,4.0,65,0.00,,---,0.00,VWS V14.00,2013-01-16 10:31:00,
2013-01-16 02:40:00,39.4,28.0,30.32,SSE,151,4.0,8.0,65,0.00,,,0.00,weatherlink.com 1.10,2013-01-16 10:40:00,
2013-01-16 02:57:00,41.3,31.0,30.32,NNE,26,1.0,4.0,66,0.00,,,0.00,weatherlink.com 1.10,2013-01-16 10:57:00,
2013-01-16 03:00:00,42.0,30.7,30.32,ESE,120,4.0,8.0,64,0.00,,---,0.00,VWS V14.00,2013-01-16 11:00:00,
2013-01-16 03:14:00,39.8,29.0,30.32,East,82,3.0,5.0,65,0.00,,,0.00,weatherlink.com 1.10,2013-01-16 11:14:00,
2013-01-16 03:29:00,40.3,28.0,30.32,East,90,7.0,8.0,63,0.00,,,0.00,weatherlink.com 1.10,2013-01-16 11:29:00,
2013-01-16 03:30:00,39.2,27.7,30.32,East,90,2.0,11.0,63,0.00,,---,0.00,VWS V14.00,2013-01-16 11:30:00,
2013-01-16 03:44:00,37.3,27.0,30.32,ESE,104,5.0,8.0,66,0.00,,,0.00,weatherlink.com 1.10,2013-01-16 11:44:00,
2013-01-16 03:59:00,38.7,27.0,30.31,ENE,76,0.0,5.0,63,0.00,,,0.00,weatherlink.com 1.10,2013-01-16 11:59:00,
2013-01-16 04:00:00,38.8,27.3,30.31,ESE,112,2.0,10.0,63,0.00,,---,0.00,VWS V14.00,2013-01-16 12:00:00,
2013-01-16 04:15:00,40.8,26.0,30.31,NE,40,1.0,2.0,57,0.00,,,0.00,weatherlink.com 1.10,2013-01-16 12:15:00,
2013-01-16 04:30:00,43.8,27.0,30.30,SE,128,1.0,3.0,52,0.00,,,0.00,weatherlink.com 1.10,2013-01-16 12:30:00,
2013-01-16 04:45:00,37.6,27.0,30.30,East,87,0.0,8.0,65,0.00,,,0.00,weatherlink.com 1.10,2013-01-16 12:45:00,
2013-01-16 05:00:00,38.4,27.0,30.30,NE,47,0.0,6.0,65,0.00,,,0.00,weatherlink.com 1.10,2013-01-16 13:00:00,
2013-01-16 05:15:00,38.4,27.0,30.30,ESE,105,3.0,7.0,63,0.00,,,0.00,weatherlink.com 1.10,2013-01-16 13:15:00,
2013-01-16 05:30:00,38.8,27.0,30.30,East,94,0.0,5.0,62,0.00,,,0.00,weatherlink.com 1.10,2013-01-16 13:30:00,
2013-01-16 05:45:00,40.4,26.0,30.30,SE,124,3.0,5.0,58,0.00,,,0.00,weatherlink.com 1.10,2013-01-16 13:45:00,
2013-01-16 06:00:00,40.6,26.0,30.30,SE,126,1.0,2.0,57,0.00,,,0.00,weatherlink.com 1.10,2013-01-16 14:00:00,
2013-01-16 06:15:00,40.0,27.0,30.30,SE,135,0.0,3.0,59,0.00,,,0.00,weatherlink.com 1.10,2013-01-16 14:15:00,
2013-01-16 06:30:00,39.0,27.0,30.30,ESE,104,0.0,5.0,62,0.00,,,0.00,weatherlink.com 1.10,2013-01-16 14:30:00,
2013-01-16 06:45:00,39.8,26.0,30.31,ESE,105,0.0,4.0,59,0.00,,,0.00,weatherlink.com 1.10,2013-01-16 14:45:00,
2013-01-16 07:00:00,40.3,27.0,30.32,ESE,123,1.0,4.0,59,0.00,,,0.00,weatherlink.com 1.10,2013-01-16 15:00:00,
2013-01-16 07:15:00,39.9,27.0,30.32,ESE,123,4.0,4.0,61,0.00,,,0.00,weatherlink.com 1.10,2013-01-16 15:15:00,
2013-01-16 07:30:00,40.2,29.0,30.32,ESE,103,4.0,4.0,64,0.00,,,0.00,weatherlink.com 1.10,2013-01-16 15:30:00,
2013-01-16 07:45:00,40.4,29.0,30.32,ESE,123,0.0,5.0,64,0.00,,,0.00,weatherlink.com 1.10,2013-01-16 15:45:00,
2013-01-16 08:00:00,42.7,30.0,30.33,ESE,113,0.0,2.0,61,0.00,,,0.00,weatherlink.com 1.10,2013-01-16 16:00:00,
2013-01-16 08:15:00,44.6,30.0,30.33,East,84,2.0,4.0,57,0.00,,,0.00,weatherlink.com 1.10,2013-01-16 16:15:00,
2013-01-16 08:30:00,47.2,31.0,30.33,ESE,112,4.0,5.0,54,0.00,,,0.00,weatherlink.com 1.10,2013-01-16 16:30:00,
2013-01-16 08:45:00,49.6,31.0,30.33,ESE,103,3.0,6.0,50,0.00,,,0.00,weatherlink.com 1.10,2013-01-16 16:45:00,
2013-01-16 09:00:00,49.9,31.0,30.33,ESE,107,3.0,8.0,49,0.00,,,0.00,weatherlink.com 1.10,2013-01-16 17:00:00,
2013-01-16 09:15:00,51.5,34.0,30.33,ENE,62,2.0,4.0,51,0.00,,,0.00,weatherlink.com 1.10,2013-01-16 17:15:00,
2013-01-16 09:30:00,54.9,36.0,30.33,East,97,0.0,5.0,50,0.00,,,0.00,weatherlink.com 1.10,2013-01-16 17:30:00,
2013-01-16 09:45:00,57.3,35.0,30.32,ESE,119,0.0,4.0,44,0.00,,,0.00,weatherlink.com 1.10,2013-01-16 17:45:00,
2013-01-16 10:00:00,59.2,33.0,30.32,South,169,1.0,3.0,38,0.00,,,0.00,weatherlink.com 1.10,2013-01-16 18:00:00,
2013-01-16 10:15:00,58.3,34.0,30.31,South,188,6.0,8.0,41,0.00,,,0.00,weatherlink.com 1.10,2013-01-16 18:15:00,
2013-01-16 10:30:00,57.0,32.0,30.30,WSW,243,2.0,7.0,39,0.00,,,0.00,weatherlink.com 1.10,2013-01-16 18:30:00,
2013-01-16 10:46:00,55.8,36.0,30.29,NW,316,5.0,7.0,48,0.00,,,0.00,weatherlink.com 1.10,2013-01-16 18:46:00,
2013-01-16 11:00:00,54.8,35.5,30.28,WNW,292,4.0,8.0,48,0.00,,---,0.00,VWS V14.00,2013-01-16 19:00:00,
2013-01-16 11:01:00,54.8,35.0,30.28,WNW,297,4.0,8.0,48,0.00,,,0.00,weatherlink.com 1.10,2013-01-16 19:01:00,
2013-01-16 11:16:00,55.8,32.0,30.27,WNW,290,3.0,8.0,41,0.00,,,0.00,weatherlink.com 1.10,2013-01-16 19:16:00,
2013-01-16 11:30:00,56.6,32.0,30.26,West,270,5.0,8.0,39,0.00,,---,0.00,VWS V14.00,2013-01-16 19:30:00,
2013-01-16 11:31:00,56.6,32.0,30.26,WSW,249,5.0,8.0,39,0.00,,,0.00,weatherlink.com 1.10,2013-01-16 19:31:00,
2013-01-16 11:46:00,55.6,40.0,30.25,West,271,5.0,11.0,57,0.00,,,0.00,weatherlink.com 1.10,2013-01-16 19:46:00,
2013-01-16 12:00:00,55.3,41.7,30.24,West,270,6.0,11.0,60,0.00,,---,0.00,VWS V14.00,2013-01-16 20:00:00,
2013-01-16 12:01:00,55.4,42.0,30.24,WSW,254,7.0,11.0,60,0.00,,,0.00,weatherlink.com 1.10,2013-01-16 20:01:00,
2013-01-16 12:16:00,55.4,39.0,30.22,West,263,7.0,12.0,55,0.00,,,0.00,weatherlink.com 1.10,2013-01-16 20:16:00,
2013-01-16 12:30:00,55.9,43.1,30.22,West,270,7.0,12.0,62,0.00,,---,0.00,VWS V14.00,2013-01-16 20:30:00,
2013-01-16 12:31:00,55.9,42.0,30.22,WSW,250,8.0,11.0,61,0.00,,,0.00,weatherlink.com 1.10,2013-01-16 20:31:00,
2013-01-16 12:46:00,55.7,44.0,30.21,NW,304,5.0,11.0,64,0.00,,,0.00,weatherlink.com 1.10,2013-01-16 20:46:00,
2013-01-16 13:00:00,55.4,44.2,30.19,West,270,7.0,12.0,66,0.00,,---,0.00,VWS V14.00,2013-01-16 21:00:00,
2013-01-16 13:01:00,55.4,44.0,30.19,WNW,290,5.0,12.0,66,0.00,,,0.00,weatherlink.com 1.10,2013-01-16 21:01:00,
2013-01-16 13:16:00,55.5,46.0,30.19,WNW,284,5.0,11.0,71,0.00,,,0.00,weatherlink.com 1.10,2013-01-16 21:16:00,
2013-01-16 13:30:00,55.9,46.7,30.18,West,270,7.0,13.0,71,0.00,,---,0.00,VWS V14.00,2013-01-16 21:30:00,
2013-01-16 13:31:00,55.9,47.0,30.18,WNW,288,9.0,11.0,71,0.00,,,0.00,weatherlink.com 1.10,2013-01-16 21:31:00,
2013-01-16 13:46:00,56.6,46.0,30.18,WSW,251,8.0,9.0,69,0.00,,,0.00,weatherlink.com 1.10,2013-01-16 21:46:00,
2013-01-16 14:00:00,56.7,45.9,30.17,West,270,6.0,12.0,67,0.00,,---,0.00,VWS V14.00,2013-01-16 22:00:00,
2013-01-16 14:01:00,56.8,46.0,30.17,West,277,8.0,12.0,67,0.00,,,0.00,weatherlink.com 1.10,2013-01-16 22:01:00,
2013-01-16 14:16:00,56.8,43.0,30.16,West,273,4.0,11.0,60,0.00,,,0.00,weatherlink.com 1.10,2013-01-16 22:16:00,
2013-01-16 14:30:00,57.6,43.8,30.17,West,270,7.0,12.0,60,0.00,,---,0.00,VWS V14.00,2013-01-16 22:30:00,
2013-01-16 14:31:00,57.6,44.0,30.17,WSW,250,7.0,11.0,60,0.00,,,0.00,weatherlink.com 1.10,2013-01-16 22:31:00,
2013-01-16 14:46:00,57.8,42.0,30.17,WSW,241,6.0,11.0,56,0.00,,,0.00,weatherlink.com 1.10,2013-01-16 22:46:00,
2013-01-16 15:00:00,57.8,39.3,30.16,West,270,7.0,12.0,50,0.00,,---,0.00,VWS V14.00,2013-01-16 23:00:00,
2013-01-16 15:01:00,57.8,39.0,30.16,West,277,9.0,11.0,50,0.00,,,0.00,weatherlink.com 1.10,2013-01-16 23:01:00,
2013-01-16 15:16:00,58.8,37.0,30.16,WNW,284,4.0,8.0,45,0.00,,,0.00,weatherlink.com 1.10,2013-01-16 23:16:00,
2013-01-16 15:30:00,60.3,36.5,30.16,West,270,5.0,11.0,41,0.00,,---,0.00,VWS V14.00,2013-01-16 23:30:00,
2013-01-16 15:31:00,60.3,36.0,30.16,WNW,290,3.0,8.0,41,0.00,,,0.00,weatherlink.com 1.10,2013-01-16 23:31:00,
2013-01-16 15:46:00,61.5,37.0,30.16,WSW,257,4.0,6.0,41,0.00,,,0.00,weatherlink.com 1.10,2013-01-16 23:46:00,
2013-01-16 16:00:00,61.0,37.2,30.15,West,270,3.0,7.0,41,0.00,,---,0.00,VWS V14.00,2013-01-17 00:00:00,
2013-01-16 16:01:00,61.0,37.0,30.15,WNW,283,3.0,7.0,41,0.00,,,0.00,weatherlink.com 1.10,2013-01-17 00:01:00,
2013-01-16 16:16:00,60.9,36.0,30.16,West,263,3.0,7.0,40,0.00,,,0.00,weatherlink.com 1.10,2013-01-17 00:16:00,
2013-01-16 16:30:00,61.2,36.1,30.16,West,270,4.0,8.0,39,0.00,,---,0.00,VWS V14.00,2013-01-17 00:30:00,
2013-01-16 16:31:00,61.2,36.0,30.16,West,270,4.0,8.0,39,0.00,,,0.00,weatherlink.com 1.10,2013-01-17 00:31:00,
2013-01-16 16:46:00,58.5,36.0,30.16,WNW,292,5.0,8.0,44,0.00,,,0.00,weatherlink.com 1.10,2013-01-17 00:46:00,
2013-01-16 17:00:00,58.6,33.1,30.16,West,270,5.0,8.0,38,0.00,,---,0.00,VWS V14.00,2013-01-17 01:00:00,
2013-01-16 17:01:00,58.6,33.0,30.16,West,271,3.0,8.0,38,0.00,,,0.00,weatherlink.com 1.10,2013-01-17 01:01:00,
2013-01-16 17:16:00,58.0,32.0,30.16,West,267,3.0,5.0,37,0.00,,,0.00,weatherlink.com 1.10,2013-01-17 01:16:00,
2013-01-16 17:30:00,56.9,35.2,30.16,WNW,289,3.0,5.0,44,0.00,,---,0.00,VWS V14.00,2013-01-17 01:30:00,
2013-01-16 17:31:00,56.9,35.0,30.16,WNW,294,3.0,5.0,44,0.00,,,0.00,weatherlink.com 1.10,2013-01-17 01:31:00,
2013-01-16 17:49:00,56.3,36.0,30.16,West,265,4.0,4.0,47,0.00,,,0.00,weatherlink.com 1.10,2013-01-17 01:49:00,
2013-01-16 18:00:00,53.0,42.7,30.16,NNW,333,3.0,4.0,68,0.00,,---,0.00,VWS V14.00,2013-01-17 02:00:00,
2013-01-16 18:01:00,55.1,39.2,30.16,WNW,285,3.0,5.0,55,0.00,,---,0.00,VWS V14.00,2013-01-17 02:01:00,
2013-01-16 18:05:00,54.7,41.0,30.16,WNW,282,2.0,5.0,60,0.00,,,0.00,weatherlink.com 1.10,2013-01-17 02:05:00,
2013-01-16 18:23:00,53.3,44.0,30.16,West,263,5.0,5.0,72,0.00,,,0.00,weatherlink.com 1.10,2013-01-17 02:23:00,
2013-01-16 18:30:00,55.4,36.6,30.16,East,84,2.0,3.0,49,0.00,,---,0.00,VWS V14.00,2013-01-17 02:30:00,
2013-01-16 18:31:00,53.4,45.3,30.17,WNW,302,3.0,7.0,74,0.00,,---,0.00,VWS V14.00,2013-01-17 02:31:00,
2013-01-16 18:41:00,52.8,45.0,30.16,NW,306,2.0,4.0,74,0.00,,,0.00,weatherlink.com 1.10,2013-01-17 02:41:00,
2013-01-16 18:57:00,52.8,44.0,30.16,WNW,296,3.0,3.0,73,0.00,,,0.00,weatherlink.com 1.10,2013-01-17 02:57:00,
2013-01-16 19:00:00,55.6,35.2,30.14,North,355,3.0,4.0,46,0.00,,---,0.00,VWS V14.00,2013-01-17 03:00:00,
2013-01-16 19:01:00,53.0,42.7,30.16,NNW,333,3.0,4.0,68,0.00,,---,0.00,VWS V14.00,2013-01-17 03:01:00,
2013-01-16 19:14:00,53.3,43.0,30.16,NNW,335,0.0,3.0,67,0.00,,,0.00,weatherlink.com 1.10,2013-01-17 03:14:00,
2013-01-16 19:30:00,50.7,35.1,30.13,ENE,76,1.0,8.0,55,0.00,,---,0.00,VWS V14.00,2013-01-17 03:30:00,
2013-01-16 19:31:00,55.4,36.6,30.16,East,84,2.0,3.0,49,0.00,,---,0.00,VWS V14.00,2013-01-17 03:31:00,
2013-01-16 19:32:00,55.3,37.0,30.16,East,86,1.0,2.0,50,0.00,,,0.00,weatherlink.com 1.10,2013-01-17 03:32:00,
2013-01-16 19:48:00,54.9,35.0,30.15,North,355,0.0,3.0,48,0.00,,,0.00,weatherlink.com 1.10,2013-01-17 03:48:00,
2013-01-16 20:00:00,52.3,35.2,30.12,SE,143,0.0,4.0,52,0.00,,---,0.00,VWS V14.00,2013-01-17 04:00:00,
2013-01-16 20:01:00,55.6,35.2,30.14,North,355,3.0,4.0,46,0.00,,---,0.00,VWS V14.00,2013-01-17 04:01:00,
2013-01-16 20:06:00,55.4,36.0,30.14,SE,136,3.0,8.0,48,0.00,,,0.00,weatherlink.com 1.10,2013-01-17 04:06:00,
2013-01-16 20:23:00,50.2,35.0,30.14,SE,129,2.0,5.0,57,0.00,,,0.00,weatherlink.com 1.10,2013-01-17 04:23:00,
2013-01-16 20:30:00,50.8,35.7,30.11,ESE,113,3.0,8.0,56,0.00,,---,0.00,VWS V14.00,2013-01-17 04:30:00,
2013-01-16 20:31:00,50.7,35.1,30.13,ENE,76,1.0,8.0,55,0.00,,---,0.00,VWS V14.00,2013-01-17 04:31:00,
2013-01-16 20:40:00,51.3,35.0,30.13,ENE,64,3.0,3.0,55,0.00,,,0.00,weatherlink.com 1.10,2013-01-17 04:40:00,
2013-01-16 20:57:00,52.3,35.0,30.13,NNE,32,0.0,2.0,53,0.00,,,0.00,weatherlink.com 1.10,2013-01-17 04:57:00,
2013-01-16 21:00:00,47.1,35.6,30.11,East,86,2.0,7.0,64,0.00,,---,0.00,VWS V14.00,2013-01-17 05:00:00,
2013-01-16 21:15:00,50.1,35.0,30.12,East,100,1.0,7.0,57,0.00,,,0.00,weatherlink.com 1.10,2013-01-17 05:15:00,
2013-01-16 21:30:00,49.6,35.9,30.11,West,280,0.0,6.0,59,0.00,,---,0.00,VWS V14.00,2013-01-17 05:30:00,
2013-01-16 21:31:00,50.8,35.7,30.11,ESE,113,3.0,8.0,56,0.00,,---,0.00,VWS V14.00,2013-01-17 05:31:00,
2013-01-16 21:49:00,48.0,35.0,30.11,SSE,157,4.0,5.0,62,0.00,,,0.00,weatherlink.com 1.10,2013-01-17 05:49:00,
2013-01-16 22:00:00,52.1,34.5,30.10,NE,49,0.0,3.0,51,0.00,,---,0.00,VWS V14.00,2013-01-17 06:00:00,
2013-01-16 22:01:00,47.1,35.6,30.11,East,86,2.0,7.0,64,0.00,,---,0.00,VWS V14.00,2013-01-17 06:01:00,
2013-01-16 22:06:00,47.2,35.0,30.11,SE,126,3.0,4.0,64,0.00,,,0.00,weatherlink.com 1.10,2013-01-17 06:06:00,
2013-01-16 22:24:00,49.7,35.0,30.10,ESE,122,3.0,7.0,58,0.00,,,0.00,weatherlink.com 1.10,2013-01-17 06:24:00,
2013-01-16 22:30:00,50.4,34.9,30.10,SE,132,0.0,3.0,55,0.00,,---,0.00,VWS V14.00,2013-01-17 06:30:00,
2013-01-16 22:31:00,49.6,35.9,30.11,West,280,0.0,6.0,59,0.00,,---,0.00,VWS V14.00,2013-01-17 06:31:00,
2013-01-16 22:41:00,50.1,35.0,30.11,WNW,298,0.0,3.0,57,0.00,,,0.00,weatherlink.com 1.10,2013-01-17 06:41:00,
2013-01-16 22:58:00,52.1,34.0,30.11,NE,44,0.0,0.0,51,0.00,,,0.00,weatherlink.com 1.10,2013-01-17 06:58:00,
2013-01-16 23:00:00,48.9,34.3,30.10,ESE,116,1.0,8.0,57,0.00,,---,0.00,VWS V14.00,2013-01-17 07:00:00,
2013-01-16 23:01:00,52.1,34.5,30.10,NE,49,0.0,3.0,51,0.00,,---,0.00,VWS V14.00,2013-01-17 07:01:00,
2013-01-16 23:15:00,50.3,35.0,30.10,North,355,0.0,3.0,56,0.00,,,0.00,weatherlink.com 1.10,2013-01-17 07:15:00,
2013-01-16 23:30:00,46.0,34.1,30.10,East,80,0.0,6.0,63,0.00,,---,0.00,VWS V14.00,2013-01-17 07:30:00,
2013-01-16 23:31:00,50.4,34.9,30.10,SE,132,0.0,3.0,55,0.00,,---,0.00,VWS V14.00,2013-01-17 07:31:00,
2013-01-16 23:33:00,50.7,35.0,30.10,ESE,110,0.0,3.0,55,0.00,,,0.00,weatherlink.com 1.10,2013-01-17 07:33:00,
2013-01-16 23:50:00,48.9,35.0,30.10,ESE,103,0.0,4.0,59,0.00,,,0.00,weatherlink.com 1.10,2013-01-17 07:50:00,